Other Public Products
Issued by NWS Grand Forks, ND

Home | Current Version | Previous Version | Text Only | Print | Product List | Glossary Off
Versions: 1 2 3 4 5 6 7 8 9 10 11 12 13 14 15 16 17 18 19 20 21 22 23 24 25 26 27 28 29 30 31 32 33 34 35 36 37 38 39 40 41 42 43 44 45 46 47 48 49 50

000
FPUS83 KFGF 041810
OPUFGF
PRAIRIE TO PINES WEATHER ROUNDUP
NATIONAL WEATHER SERVICE EASTERN NORTH DAKOTA/GRAND FORKS ND
100 PM CDT FRI SEP 04 2015

 **SATELLITE DATA USED TO AUGMENT SKY COVER AT AUTOMATED STATIONS**
 *****  WEATHER ACROSS EASTERN NORTH DAKOTA  *****

CITY           SKY/WX    TMP DP  RH WIND       PRES   REMARKS
GRAND FORKS    TSTM      77  74  90 SE8       29.76F
6HR MIN TEMP:  72; 6HR MAX TEMP:  77; 6HR PCP:  0.04;

GRAND FORKS AF CLOUDY    77  73  86 SE7       29.77F
GRAND CITY NWS   N/A     75 N/A N/A S7          N/A
BUXTON         NOT AVBL
DEVILS LAKE    CLOUDY    75  66  73 SW6       29.77S THUNDER
6HR MIN TEMP:  73; 6HR MAX TEMP:  77;

FARGO          CLOUDY    82  68  62 S17       29.81R
6HR MIN TEMP:  74; 6HR MAX TEMP:  84; 6HR PCP: TRACE;

WAHPETON ARPT  CLOUDY    72  68  88 CALM      29.81F
$$

 *****  WEATHER ACROSS CENTRAL AND WESTERN NORTH DAKOTA  *****

CITY           SKY/WX    TMP DP  RH WIND       PRES   REMARKS
JAMESTOWN      CLOUDY    75  67  76 SE8       29.80R
6HR MIN TEMP:  73; 6HR MAX TEMP:  76; 6HR PCP:  0.14;

BISMARCK       CLOUDY    78  71  79 NE7       29.79F
6HR MIN TEMP:  71; 6HR MAX TEMP:  78;

MINOT          CLOUDY    73  63  70 NE8       29.79F
6HR MIN TEMP:  65; 6HR MAX TEMP:  73;

MINOT AFB      CLOUDY    72  67  86 NE8       29.78F
6HR MIN TEMP:  64; 6HR MAX TEMP:  72; 6HR PCP: TRACE;

GARRISON         N/A     72  64  76 VRB3      29.81R
6HR MIN TEMP:  66; 6HR MAX TEMP:  73;

WILLISTON      CLOUDY    66  52  60 NE20      29.89R
6HR MIN TEMP:  61; 6HR MAX TEMP:  66; 6HR PCP: TRACE;

DICKINSON      CLOUDY    70  64  81 N10       29.83R
6HR MIN TEMP:  64; 6HR MAX TEMP:  70; 6HR PCP: TRACE;

HETTINGER      SUNNY     83  59  44 NE7       29.82S
6HR MIN TEMP:  64; 6HR MAX TEMP:  83;

$$

 *****  OTHER OBSERVATIONS NORTHEAST NORTH DAKOTA  *****

CITY           SKY/WX    TMP DP  RH WIND       PRES   REMARKS
WALHALLA       LGT RAIN  68  68 100 MISG      29.79R
LANGDON        FAIR      79  72  78 E10       29.78F
CAVALIER       TSTM      73  72  94 SE3       29.76F VSB 3/4
GRAFTON        CLOUDY    70  70 100 SE6       29.78F THUNDER
CANDO          NOT AVBL
FORT TOTTEN    NOT AVBL
ROLLA          FOG       63  63 100 N13       29.83F VSB 1/2
RUGBY          CLOUDY    66  66 100 NE9       29.79F FOG
 ***** THE ABOVE OBSERVATIONS ARE NON NWS ARE NOT QUALITY
        CONTROLLED AND MAY MIS-REPORT RAIN FOR SNOW...
$$

 *****  OTHER OBSERVATIONS SOUTHEAST NORTH DAKOTA *****

CITY           SKY/WX    TMP DP  RH WIND       PRES   REMARKS
COOPERSTOWN    NOT AVBL
VALLEY CITY    LGT RAIN  73  70  88 S14G23    29.83R
OAKES            N/A     72  72 100 S14       29.81F
GWINNER          N/A     73  73 100 S7        29.83R
SHEYENNE NWR     N/A     74  70  86 S3        29.95S
BUFFALO        NOT AVBL
WYNDMERE         N/A     73  72  94 S3          N/A
 ***** THE ABOVE OBSERVATIONS ARE NON NWS ARE NOT QUALITY
       CONTROLLED AND MAY MIS-REPORT RAIN FOR SNOW...
$$

  *****  WEATHER ACROSS NORTHERN MINNESOTA  *****

CITY           SKY/WX    TMP DP  RH WIND       PRES   REMARKS
FLAG ISLAND    CLOUDY    75  66  73 E5        29.85F
WARROAD        SUNNY     75  72  88 NE9       29.84F
ROSEAU         MOSUNNY   79  72  78 E10G16    29.82F
HALLOCK        CLOUDY    75  72  88 SE13      29.78R
THF RVR FALLS  CLOUDY    81  72  74 S14       29.82S
6HR MIN TEMP:  70; 6HR MAX TEMP:  81;

HALSTAD        NOT AVBL
FOSSTON        PTSUNNY   79  66  65 S16       29.86R
BAUDETTE       SUNNY     82  70  66 SE12G24   29.86F
6HR MIN TEMP:  63; 6HR MAX TEMP:  83;

WASKISH        SUNNY     81  72  74 E13G21    29.87F
CROOKSTON      CLOUDY    81  72  74 S14       29.80S
$$
  *****  WEATHER ACROSS CENTRAL AND WEST MINNESOTA  *****

CITY           SKY/WX    TMP DP  RH WIND       PRES   REMARKS
BEMIDJI        MOSUNNY   79  69  70 SE13G21   29.87F
PARK RAPIDS    CLOUDY    80  68  66 S13       29.91R
6HR MIN TEMP:  68; 6HR MAX TEMP:  81;

WADENA         PTSUNNY   81  72  74 SE8       29.89F
DETROIT LAKES  CLOUDY    81  70  69 S13       29.88S
MOORHEAD       CLOUDY    82  68  61 S13       29.84R
FERGUS FALLS   CLOUDY    77  70  78 CALM      29.83F
ELBOW LAKE     FAIR      76  71  83 SE3       29.85F HAZE
6HR MIN TEMP:  73; 6HR MAX TEMP:  80;

MORRIS MN      CLOUDY    79  72  78 SE3       29.85F
STAPLES        PTSUNNY   81  70  69 S10       29.91R
WHEATON        CLOUDY    72  70  94 E7        29.83F
$$
  *****  WEATHER ELSEWHERE ACROSS MINNESOTA  *****

CITY           SKY/WX    TMP DP  RH WIND       PRES   REMARKS
DULUTH         MOSUNNY   74  64  71 SE13      30.01R
6HR MIN TEMP:  60; 6HR MAX TEMP:  74;

INTRNTL FALLS  MOSUNNY   82  68  62 S8G18     29.92F
6HR MIN TEMP:  58; 6HR MAX TEMP:  82;

ELY            MOSUNNY   79  57  47 S12G18    30.00F
CLOQUET        SUNNY     73  63  68 E13G18    29.99S
BRAINERD       MOSUNNY   81  70  69 SE10      29.92R
6HR MIN TEMP:  67; 6HR MAX TEMP:  82;

HIBBING        SUNNY     81  69  67 SE17      29.97F
6HR MIN TEMP:  62; 6HR MAX TEMP:  81;

ALEXANDRIA     CLOUDY    82  70  66 S8        29.90F
6HR MIN TEMP:  72; 6HR MAX TEMP:  82;

SAINT CLOUD    MOSUNNY   83  72  69 SE10      29.91R
6HR MIN TEMP:  69; 6HR MAX TEMP:  84;

MINNEAPOLIS    MOSUNNY   85  72  65 E10       29.92S HX  91
6HR MIN TEMP:  71; 6HR MAX TEMP:  85;

$$

  *****  WEATHER ACROSS SOUTH DAKOTA  *****

CITY           SKY/WX    TMP DP  RH WIND       PRES   REMARKS
SIOUX FALLS    LGT RAIN  73  67  81 SE13      29.86S
6HR MIN TEMP:  73; 6HR MAX TEMP:  80; 6HR PCP:  0.06;

BROOKINGS      CLOUDY   N/A N/A N/A SE5       29.88S
WATERTOWN      CLOUDY    76  68  76 S6        29.85F
6HR MIN TEMP:  69; 6HR MAX TEMP:  76; 6HR PCP:  0.03;

HURON          PTSUNNY   84  68  58 S15G21    29.77F
6HR MIN TEMP:  70; 6HR MAX TEMP:  84; 6HR PCP:  0.16;

SISSETON         N/A     73  70  90 S5        29.81F
ABERDEEN       CLOUDY    80  68  66 S8        29.80F
6HR MIN TEMP:  71; 6HR MAX TEMP:  82; 6HR PCP:  0.02;

MITCHELL       PTSUNNY   85  68  56 S12       29.79F
PIERRE         SUNNY     85  66  53 E5        29.75F
6HR MIN TEMP:  69; 6HR MAX TEMP:  85; 6HR PCP:  0.01;

MOBRIDGE       PTSUNNY   86  66  51 SE12G21   29.77F
RAPID CITY     SUNNY     83  54  36 VRB3      29.83S
6HR MIN TEMP:  64; 6HR MAX TEMP:  84;

$$

  *****  SOME WEATHER IN NEARBY STATES *****

CITY           SKY/WX    TMP DP  RH WIND       PRES   REMARKS
GLASGOW MT     MOSUNNY   70  46  42 NE17      29.90F
6HR MIN TEMP:  52; 6HR MAX TEMP:  70;

GREAT FALLS MT LGT RAIN  51  49  92 SE6       29.98F VSB 1
6HR MIN TEMP:  48; 6HR MAX TEMP:  51; 6HR PCP:  0.15;

CHEYENNE WY    MOSUNNY   82  35  18 W12       30.05F
6HR MIN TEMP:  51; 6HR MAX TEMP:  83;

SCOTTSBLUFF NE MOSUNNY   84  50  30 VRB3      29.91F
6HR MIN TEMP:  54; 6HR MAX TEMP:  84;

OMAHA NE       PTSUNNY   86  70  58 S14       29.90R HX  90
6HR MIN TEMP:  74; 6HR MAX TEMP:  86;

DES MOINES IA  PTSUNNY   87  69  54 SW12      29.95F HX  91
6HR MIN TEMP:  71; 6HR MAX TEMP:  89;

DAVENPORT IA   MOSUNNY   87  70  56 S5        30.01F HX  92
6HR MIN TEMP:  69; 6HR MAX TEMP:  89;

CHICAGO IL     MOSUNNY   82  68  62 VRB3      30.02F
6HR MIN TEMP:  69; 6HR MAX TEMP:  83;

EAU CLAIRE WI  SUNNY     82  69  64 SE10      29.98F
6HR MIN TEMP:  69; 6HR MAX TEMP:  82;

LA CROSSE WI   SUNNY     86  71  60 SE8       29.98F HX  91
6HR MIN TEMP:  69; 6HR MAX TEMP:  86;

$$

  *****  SOME NATIONAL WEATHER *****

CITY           SKY/WX    TMP DP  RH WIND       PRES   REMARKS



USA.gov is the U.S. government's official web portal to all federal, state and local government web resources and services.